sat.trackr.live / text

‹ back to catalog

STARLINK-36794

NORAD 68955 · 2026-099E

PAYLOAD ACTIVE UNKNOWN

§ Identity

Operator
Country
US
Launch date
2026-05-01
Launch site
AFETR
Launch vehicle
Mass (kg)
RCS (m²)

Purposes: comms

External: N2YO · Heavens-Above · Gunter

§ Orbital elements

Epoch: 2026-09-19T22:14:36.394368Z

Period
93.85 min
Inclination
53.1593°
Eccentricity
0.0001148
Mean motion
15.34431062 rev/d
Perigee alt
461.8 km
Apogee alt
463.4 km
Semi-major
6,840.7 km
B*
5.3857e-4
RAAN
78.6625°
Arg perigee
84.3294°
Mean anomaly
275.7840°
Rev number
2,181

§ Raw data

STARLINK-367941 68955U 26099E   26262.92681012  .00017882  00000+0  53857-3 0  99922 68955  53.1593  78.6625 0001148  84.3294 275.7840 15.34431062 21813

JSON: /api/v1/satellites/68955 · /tle

For live sub-satellite position, see the globe view (requires WebGL).

§ Visibility from observer

Set your observer location to see the next 7 days of passes ≥ 10°. The values pass through the URL so the page stays shareable.

No JS? Fill the form by hand. The geolocation button needs JavaScript.